Temp
59 50 51 56 59 57 55 51 51 61 60 59 62 63 68 72 68 70 72 75 76 77 82 85 85 84 82 82 81 81 80 80 80 78 75 75 75 77 77 78 78 78 78 77
50 47 56 60 61 56 55 50 49 53 58 58 61 59 66 68 68 70 71 73 74 77 79 82 83 83 81 80 80 80 78 78 79 77 77 77 77 78 79 77 75 74 75 74
49 51 56 56 54 52 54 53 55 53 55 57 57 57 61 69 68 70 71 72 74 74 74 77 77 77 77 76 76 77 76 76 76 75 75 72 72 69 70 71 72 73 72 71
51 53 51 51 52 55 49 58 56 53 50 47 57 47 62 66 63 64 68 70 72 73 72 72 71 72 73 71 70 70 71 72 72 72 70 69 69 68 72 70 70 68 68 67
46 48 48 47 52 56 51 55 54 53 50 49 51 47 55 64 59 64 68 69 67 68 68 68 68 66 67 66 64 66 67 67 66 66 65 66 66 67 69 69 67 67 67 66
48 53 53 52 53 56 55 52 52 51 49 35 48 49 51 58 60 65 64 65 65 66 66 66 66 64 65 64 62 62 63 64 64 63 64 64 64 65 65 66 66 66 67 66
45 46 50 54 48 52 53 48 35 33 33 36 50 48 52 62 65 64 64 65 67 66 66 65 64 64 62 61 60 60 61 62 62 62 62 62 62 62 62 64 65 64 64 64
39 33 45 51 52 47 48 49 40 30 33 41 44 40 52 63 68 65 63 65 65 66 66 66 65 65 63 61 60 60 60 60 61 60 60 61 60 61 62 62 62 62 62 62
40 37 49 51 51 53 46 41 50 40 33 38 46 50 56 61 61 61 62 62 64 65 65 66 66 67 65 64 62 61 60 60 60 60 60 59 59 58 58 59 59 58 59 59
46 34 45 47 51 51 49 54 38 40 30 30 41 46 48 54 58 62 60 62 64 65 65 65 65 66 66 64 62 62 62 61 61 60 60 59 58 58 57 57 55 56 57 57
49 45 38 46 43 44 44 43 45 46 42 34 34 43 58 58 61 61 63 64 65 65 66 65 65 66 65 64 63 62 62 61 60 60 59 58 57 57 57 55 55 55 55 55
47 42 34 39 45 48 52 47 47 36 32 38 36 41 54 56 61 62 62 61 64 64 66 66 65 64 64 65 64 62 61 60 60 59 58 57 57 56 55 55 55 55 53 53
44 38 31 33 39 45 43 47 48 47 38 34 34 41 55 56 55 56 55 58 60 61 62 64 66 66 65 62 61 61 60 58 56 56 54 53 53 53 53 53 53 53 51 51
46 41 37 33 37 43 39 42 46 45 33 37 39 45 50 51 54 57 58 60 63 64 63 63 62 63 63 61 59 58 57 56 55 54 53 50 50 50 52 52 51 50 50 49
39 33 36 38 38 38 40 42 44 41 43 36 42 41 50 54 56 58 60 60 59 58 59 60 59 58 59 58 56 55 56 54 52 51 51 51 50 50 49 47 46 47 46 47
41 32 37 31 39 37 34 41 42 42 43 44 45 44 56 59 59 57 58 58 57 58 59 58 57 56 54 52 51 52 52 50 49 49 47 48 45 44 43 43 43 42 42 43
39 35 32 30 36 36 29 37 41 44 47 46 40 49 56 55 57 58 59 58 57 57 57 55 54 52 50 49 48 48 47 48 46 44 44 43 41 40 40 40 40 39 40 41
39 35 33 29 29 22 40 48 49 46 49 52 52 52 55 56 59 58 58 56 56 54 53 52 50 50 49 47 45 44 44 44 43 42 41 39 38 38 38 38 38 38 39 39
43 37 28 27 28 35 39 45 43 41 45 54 52 55 57 59 55 53 53 53 52 51 49 47 46 44 44 42 40 39 39 40 39 38 36 36 35 34 34 34 35 37 36 36
40 40 33 27 24 22 43 45 53 51 35 54 56 55 55 53 45 50 49 49 48 47 44 41 40 40 40 38 36 34 35 35 36 33 32 33 33 32 32 33 33 34 34 33
27 29 26 27 26 31 44 48 49 33 38 46 48 49 49 48 47 46 47 45 43 41 39 39 39 38 36 35 32 31 32 32 30 29 29 29 30 29 30 31 31 31 31 31
29 26 25 27 24 21 47 43 40 46 46 46 46 46 45 46 45 44 44 41 39 38 36 35 34 34 34 31 28 28 28 28 26 25 24 24 25 27 28 27 28 29 29 29
28 36 32 33 33 45 47 45 47 46 45 45 46 44 45 44 44 43 42 40 37 35 34 32 29 28 30 28 26 24 25 23 21 18 19 21 23 25 26 26 26 27 28 28
36 43 35 35 41 43 45 46 47 46 46 45 45 43 42 40 41 40 39 37 35 32 29 27 25 24 24 25 23 22 21 19 14 16 18 21 23 24 25 26 27 26 26 26
40 39 36 36 42 45 46 45 46 44 43 42 41 41 40 38 39 38 36 32 31 29 26 24 22 22 21 21 20 19 17 14 13 15 18 21 23 23 23 25 25 26 27 27
40 37 35 36 45 44 45 43 43 40 40 40 38 35 33 34 34 32 30 29 27 25 23 21 20 18 18 17 15 15 12 10 9 13 18 19 20 21 22 22 23 27 28 29
MSLP
1013.50 1013.72 1012.72 1012.43 1012.78 1013.02 1013.43 1013.26 1013.17 1012.41 1013.20 1012.67 1011.85 1011.56 1011.18 1011.23 1011.71 1011.57 1011.41 1011.30 1011.48 1011.60 1011.66 1011.70 1012.05 1012.64 1013.18 1013.50 1013.83 1014.07 1014.27 1014.47 1014.87 1015.03 1015.27 1015.34 1015.21 1015.34 1015.46 1015.47 1015.74 1015.97 1016.11 1016.26
1014.16 1013.22 1013.03 1013.09 1013.12 1013.42 1013.36 1013.66 1013.93 1014.01 1013.83 1013.11 1012.23 1011.96 1011.61 1011.56 1011.81 1011.76 1011.62 1011.46 1011.57 1011.46 1011.56 1011.82 1012.09 1012.33 1012.92 1013.42 1013.65 1013.87 1014.36 1014.40 1014.54 1014.95 1015.14 1015.21 1015.15 1015.18 1015.05 1015.37 1015.91 1016.18 1016.27 1016.39
1013.31 1013.50 1013.54 1013.66 1013.75 1013.65 1013.58 1013.45 1013.58 1014.08 1014.25 1013.81 1013.06 1011.93 1011.23 1010.97 1011.57 1011.65 1011.80 1011.75 1011.74 1011.82 1011.94 1012.22 1012.52 1012.95 1013.29 1013.51 1013.75 1013.93 1014.31 1014.53 1014.73 1015.09 1015.22 1015.64 1015.80 1015.93 1015.89 1015.86 1015.99 1016.03 1016.27 1016.47
1013.72 1014.29 1014.30 1014.00 1014.00 1014.07 1013.88 1014.05 1014.25 1014.47 1014.53 1013.89 1013.67 1011.54 1010.06 1010.37 1011.37 1011.83 1011.59 1011.86 1012.02 1012.20 1012.69 1013.01 1013.32 1013.61 1013.87 1014.25 1014.49 1014.66 1014.77 1014.79 1015.12 1015.37 1015.61 1015.61 1015.60 1015.43 1015.28 1015.70 1015.95 1016.25 1016.43 1016.48
1014.21 1014.63 1014.63 1014.51 1014.27 1014.44 1014.54 1014.76 1014.84 1015.00 1014.88 1014.64 1014.01 1013.32 1011.02 1010.60 1010.86 1011.07 1011.28 1011.80 1012.67 1013.18 1013.43 1013.60 1013.90 1014.45 1014.81 1015.00 1015.19 1015.09 1015.21 1015.52 1015.77 1015.97 1016.17 1016.15 1016.04 1015.97 1015.89 1015.90 1016.06 1016.15 1016.23 1016.37
1014.79 1015.29 1015.13 1014.88 1015.00 1014.92 1015.40 1015.53 1015.67 1015.84 1015.64 1015.10 1014.18 1013.06 1010.93 1010.30 1010.38 1010.84 1012.05 1012.57 1013.07 1013.51 1013.86 1014.07 1014.42 1014.97 1015.04 1015.37 1015.52 1015.49 1015.50 1015.87 1016.23 1016.40 1016.33 1016.35 1016.33 1016.34 1016.18 1015.94 1015.90 1015.83 1015.81 1015.99
1015.02 1015.49 1015.79 1015.51 1015.46 1015.69 1015.36 1015.54 1016.05 1016.40 1016.07 1014.58 1013.81 1012.94 1011.46 1010.69 1010.89 1011.36 1012.01 1012.57 1013.22 1013.79 1014.11 1014.49 1014.63 1014.88 1015.18 1015.57 1015.91 1015.96 1015.88 1016.09 1016.49 1016.68 1016.73 1016.64 1016.65 1016.57 1016.39 1016.17 1015.89 1015.79 1015.69 1015.84
1014.28 1015.97 1015.69 1015.63 1014.96 1014.98 1015.20 1015.05 1015.31 1015.49 1015.33 1014.44 1014.70 1012.96 1011.25 1010.91 1011.05 1011.86 1012.67 1012.96 1013.40 1013.77 1014.41 1014.58 1014.80 1015.07 1015.27 1015.69 1016.13 1016.29 1016.27 1016.41 1016.75 1016.80 1016.73 1016.76 1016.81 1016.77 1016.65 1016.57 1016.53 1016.33 1016.16 1016.07
1013.87 1015.16 1015.72 1015.72 1015.70 1015.34 1015.88 1015.78 1016.21 1016.15 1016.51 1015.28 1013.80 1012.65 1012.01 1011.36 1011.37 1012.01 1012.58 1012.99 1013.30 1013.81 1014.37 1014.54 1014.81 1015.13 1015.42 1015.75 1016.21 1016.42 1016.41 1016.41 1016.66 1016.96 1016.95 1016.81 1016.91 1016.89 1016.97 1016.85 1016.82 1016.73 1016.65 1016.58
1013.96 1015.40 1016.34 1016.54 1016.40 1016.34 1015.91 1015.96 1016.55 1016.47 1016.28 1015.48 1013.51 1012.23 1011.48 1011.42 1011.27 1011.76 1012.42 1012.73 1013.23 1013.88 1014.27 1014.64 1015.04 1015.28 1015.54 1015.85 1016.25 1016.18 1016.18 1016.56 1016.67 1016.68 1016.69 1016.82 1016.93 1016.90 1016.89 1016.96 1017.06 1016.89 1016.61 1016.47
1014.42 1014.56 1016.76 1016.68 1016.24 1015.73 1016.25 1015.94 1016.07 1016.00 1016.18 1015.49 1014.00 1012.54 1011.73 1011.54 1011.53 1011.75 1012.09 1012.70 1013.05 1013.83 1014.23 1014.79 1014.92 1015.18 1015.49 1015.59 1016.21 1016.36 1016.07 1016.39 1016.50 1016.75 1016.63 1016.65 1016.52 1016.64 1016.79 1016.74 1016.56 1016.62 1016.55 1016.34
1015.40 1015.68 1016.48 1016.67 1016.81 1016.54 1015.81 1015.70 1015.99 1016.09 1016.77 1016.28 1015.25 1013.49 1013.06 1012.78 1012.19 1012.34 1012.86 1013.30 1013.53 1014.11 1014.47 1014.87 1014.89 1015.18 1015.29 1015.43 1015.89 1016.26 1016.03 1016.57 1016.47 1016.51 1016.84 1016.62 1016.52 1016.37 1016.74 1016.82 1016.42 1016.40 1016.38 1016.33
1016.16 1016.44 1016.87 1017.58 1017.80 1017.23 1016.41 1016.18 1016.14 1016.49 1016.91 1016.02 1015.46 1013.96 1013.71 1013.56 1013.50 1013.56 1013.72 1013.78 1014.16 1014.68 1014.58 1014.49 1014.54 1014.78 1015.25 1015.82 1016.13 1016.61 1016.82 1016.49 1016.75 1017.07 1017.01 1016.67 1016.31 1016.52 1016.73 1016.32 1016.09 1016.08 1016.11 1016.15
1016.86 1017.01 1016.98 1017.15 1016.86 1016.61 1016.54 1016.32 1016.29 1016.25 1016.20 1015.83 1014.42 1014.39 1014.13 1013.86 1013.59 1013.46 1013.85 1013.99 1014.03 1014.09 1014.20 1014.45 1014.91 1015.27 1015.70 1015.98 1016.39 1016.76 1017.02 1017.18 1017.12 1016.88 1016.84 1016.95 1016.95 1016.85 1016.50 1016.33 1016.38 1016.35 1016.23 1016.03
1017.92 1018.03 1018.14 1018.03 1017.93 1017.63 1017.09 1016.56 1016.24 1015.88 1015.86 1015.37 1014.52 1014.06 1013.80 1013.61 1013.53 1013.47 1013.60 1013.71 1013.90 1014.41 1014.67 1014.89 1015.27 1015.69 1016.00 1016.20 1016.69 1017.17 1017.31 1017.56 1017.70 1017.61 1017.43 1017.36 1017.33 1017.21 1016.96 1016.85 1016.74 1016.61 1016.36 1016.07
1018.54 1018.75 1018.66 1018.69 1018.37 1018.13 1017.69 1016.92 1016.43 1015.94 1015.59 1014.62 1014.33 1012.75 1013.64 1013.30 1013.26 1013.45 1013.53 1013.94 1014.38 1014.60 1014.83 1015.45 1015.99 1016.37 1016.80 1017.27 1017.76 1017.99 1018.16 1018.28 1018.38 1018.21 1018.24 1018.08 1018.07 1017.78 1017.47 1017.22 1016.93 1016.57 1016.14 1015.80
1018.79 1019.00 1019.25 1019.27 1019.11 1018.70 1017.74 1016.32 1015.73 1015.18 1014.82 1014.44 1013.52 1012.83 1012.56 1012.62 1012.60 1012.83 1013.15 1013.74 1014.34 1014.90 1015.50 1016.09 1016.62 1017.30 1017.88 1018.34 1018.65 1018.66 1018.75 1018.73 1018.70 1018.58 1018.37 1018.17 1018.07 1017.83 1017.52 1017.19 1016.79 1016.37 1015.88 1015.48
1019.02 1019.56 1019.86 1020.14 1019.91 1018.64 1016.24 1015.46 1014.81 1014.40 1013.93 1013.43 1012.77 1012.43 1012.40 1012.12 1012.37 1012.89 1013.53 1014.24 1014.94 1015.70 1016.45 1017.20 1017.86 1018.31 1018.75 1019.13 1019.26 1019.44 1019.38 1019.15 1019.00 1018.84 1018.71 1018.62 1018.48 1018.09 1017.67 1017.21 1016.81 1016.27 1015.83 1015.50
1019.93 1020.05 1020.46 1020.42 1019.67 1017.65 1016.07 1015.06 1014.69 1014.26 1013.37 1012.93 1012.45 1012.22 1012.02 1012.20 1013.04 1013.81 1014.83 1015.48 1016.28 1016.97 1017.64 1018.31 1018.92 1019.44 1019.72 1020.00 1020.24 1020.22 1019.95 1019.68 1019.52 1019.39 1019.37 1019.23 1018.82 1018.24 1017.75 1017.26 1016.78 1016.25 1015.83 1015.49
1020.64 1020.60 1020.66 1020.93 1019.81 1017.83 1015.05 1014.93 1014.40 1014.67 1013.69 1012.94 1012.70 1012.26 1012.60 1013.34 1014.04 1014.59 1016.27 1016.95 1017.60 1018.24 1018.96 1019.48 1019.97 1020.28 1020.51 1020.77 1020.91 1020.77 1020.40 1020.19 1019.92 1020.08 1020.01 1019.73 1019.20 1018.63 1018.01 1017.40 1016.85 1016.35 1015.94 1015.38
1021.13 1021.19 1020.97 1020.76 1019.71 1017.30 1015.66 1015.29 1015.48 1015.37 1014.67 1014.15 1014.04 1014.10 1014.30 1014.70 1015.79 1016.78 1017.47 1018.17 1018.97 1019.52 1020.01 1020.36 1020.53 1020.73 1021.04 1021.30 1021.44 1021.27 1020.98 1020.68 1020.83 1020.62 1020.29 1019.79 1019.27 1018.74 1018.12 1017.49 1017.05 1016.43 1015.87 1015.33
1020.15 1020.37 1020.49 1020.60 1019.58 1017.32 1015.50 1015.95 1015.57 1014.98 1014.91 1015.13 1015.32 1015.73 1016.08 1016.33 1016.87 1017.51 1018.21 1019.03 1019.67 1020.21 1020.70 1021.15 1021.27 1021.21 1021.44 1021.77 1021.87 1021.80 1021.54 1021.57 1021.45 1021.23 1020.78 1020.21 1019.66 1019.08 1018.39 1017.82 1017.11 1016.56 1015.95 1015.25
1019.72 1018.37 1018.51 1018.28 1016.69 1015.60 1015.63 1015.39 1015.25 1015.59 1015.71 1016.04 1016.41 1016.86 1016.99 1017.34 1017.77 1018.31 1018.80 1019.40 1020.03 1020.72 1021.23 1021.69 1021.88 1021.72 1021.88 1022.21 1022.66 1022.60 1022.40 1022.40 1022.18 1021.87 1021.15 1020.50 1019.84 1019.23 1018.61 1017.99 1017.20 1016.55 1016.09 1015.53
1018.75 1018.22 1017.92 1017.35 1015.36 1015.26 1015.41 1015.53 1015.63 1015.93 1016.18 1016.55 1016.97 1017.44 1017.88 1018.09 1018.39 1018.73 1019.23 1019.81 1020.36 1021.11 1021.73 1022.18 1022.18 1022.33 1022.64 1023.02 1023.33 1023.37 1023.30 1023.16 1022.92 1022.24 1021.37 1020.48 1019.74 1019.13 1018.54 1018.05 1017.50 1016.75 1016.23 1015.64
1018.17 1017.87 1016.88 1016.00 1015.41 1015.40 1015.19 1015.49 1015.73 1016.23 1016.81 1017.26 1017.81 1018.13 1018.38 1018.67 1018.73 1019.03 1019.69 1020.45 1021.00 1021.68 1022.23 1022.58 1022.86 1023.19 1023.49 1023.69 1023.74 1023.82 1023.76 1023.65 1023.31 1022.51 1021.58 1020.71 1020.05 1019.49 1018.90 1018.30 1017.91 1017.25 1016.63 1015.79
1017.28 1016.37 1016.12 1014.81 1014.88 1015.07 1015.23 1015.61 1015.90 1016.58 1017.07 1017.58 1018.28 1018.89 1019.14 1019.30 1019.46 1019.97 1020.64 1021.15 1021.92 1022.53 1022.81 1023.05 1023.47 1023.88 1024.08 1024.25 1024.28 1024.20 1024.18 1024.11 1023.69 1022.69 1021.69 1021.04 1020.42 1019.82 1019.28 1018.58 1017.93 1017.56 1016.86 1015.96
Wind_Speed
10 6 13 13 11 3 12 4 7 3 5 2 5 10 10 5 3 6 7 6 7 10 9 9 7 5 7 9 10 10 11 11 8 7 7 7 7 7 7 6 8 8 7 7
6 13 9 6 9 7 10 8 8 2 4 4 6 11 11 8 9 10 11 10 12 13 12 11 10 8 6 9 10 9 10 10 9 7 6 6 4 5 6 3 5 6 6 5
11 3 9 8 8 11 11 13 12 7 1 2 6 16 18 12 9 12 12 14 14 13 13 12 10 11 11 10 8 8 8 8 6 7 5 3 4 3 4 4 4 4 4 4
7 7 9 9 13 11 14 12 8 5 3 5 2 7 11 8 7 7 9 11 9 7 7 7 6 7 8 9 8 7 7 5 4 3 5 7 6 5 3 2 2 3 4 5
7 8 10 11 13 10 1 4 6 7 5 8 10 7 12 10 8 11 14 1 1 2 4 6 6 5 7 7 7 6 4 3 1 2 3 3 4 4 3 4 5 5 5 5
8 2 5 4 4 10 11 10 7 2 4 7 13 12 10 10 10 5 3 4 1 2 3 4 4 3 4 5 5 4 3 1 0 2 3 4 4 5 4 5 4 4 3 3
8 5 3 5 12 6 12 13 3 3 4 6 3 12 14 5 6 3 7 1 3 2 4 5 6 6 5 6 5 4 3 2 1 3 3 2 3 5 6 6 5 6 5 4
12 7 10 8 10 8 14 11 4 7 7 6 4 8 3 7 7 6 3 4 1 2 4 6 5 5 5 5 4 4 3 3 3 3 4 3 4 4 5 6 6 5 5 5
11 5 9 10 2 9 12 11 3 2 2 2 7 8 5 7 9 6 5 3 5 7 7 6 6 7 6 6 5 4 3 3 4 5 4 4 4 5 6 7 6 5 6 5
2 8 5 5 3 1 4 10 4 2 3 6 7 8 7 9 12 10 7 7 7 6 6 5 5 7 6 5 3 4 4 5 5 4 5 5 6 6 6 6 7 8 7 7
3 2 5 8 8 12 6 8 4 4 3 4 4 5 2 8 7 9 10 7 7 6 5 4 3 6 4 3 3 4 4 5 5 5 5 6 6 7 7 7 7 8 8 7
4 4 5 5 3 4 12 9 11 3 4 4 3 6 2 4 3 7 9 4 1 0 2 2 4 4 3 3 4 5 5 5 5 5 6 7 8 7 7 8 8 7 8 7
5 3 5 6 0 1 6 11 11 10 1 7 5 2 3 4 5 3 1 1 4 7 5 7 8 7 4 3 4 5 5 6 5 5 5 6 6 6 8 8 7 7 8 8
1 2 2 2 5 2 8 10 13 13 5 5 15 11 3 3 3 3 5 8 10 10 8 8 7 6 3 2 3 4 5 6 6 7 6 6 6 7 8 8 8 8 8 9
4 3 3 4 4 3 3 6 13 18 15 14 7 12 11 11 11 12 13 13 11 8 8 8 5 5 6 7 7 7 7 7 8 8 7 8 8 8 8 8 8 9 9 9
1 3 3 2 3 3 4 10 12 13 12 20 19 27 17 16 14 14 15 9 11 11 7 3 2 4 5 6 6 7 7 7 8 7 6 7 6 6 7 7 8 8 8 9
3 4 2 2 1 3 6 12 15 13 15 16 19 19 16 15 15 13 12 10 9 8 3 2 4 5 5 6 7 8 9 8 7 6 5 6 6 7 7 7 8 8 9 9
5 4 2 2 1 5 3 7 10 16 19 19 20 18 16 16 12 6 5 4 6 1 3 5 4 5 6 7 7 9 9 8 7 7 8 8 9 9 9 9 8 8 8 9
1 3 3 3 6 10 10 6 7 8 14 17 19 18 19 13 2 2 6 7 6 5 6 5 6 6 6 7 8 9 8 7 7 7 9 10 10 10 10 10 10 9 9 9
5 3 2 2 4 7 1 5 3 2 13 13 15 17 14 4 6 4 7 6 6 6 6 5 5 5 6 8 9 9 8 8 8 10 11 10 10 10 11 11 10 9 8 10
5 3 9 7 5 9 7 7 1 10 2 8 10 8 5 1 6 7 4 5 5 5 5 6 6 5 5 6 8 9 9 8 10 11 11 11 10 11 10 10 9 10 10 9
9 9 6 6 6 12 8 2 7 2 4 5 8 7 6 6 5 3 2 1 2 2 3 4 5 6 7 7 8 9 9 10 10 11 11 11 10 9 9 10 9 9 9 10
6 7 5 11 9 1 5 2 1 1 1 2 2 4 3 1 1 1 2 1 1 2 4 3 5 7 6 6 7 9 9 10 11 11 10 10 10 9 9 10 10 9 9 9
7 8 5 4 8 15 10 7 6 5 5 3 2 3 1 1 1 3 2 3 3 2 3 3 5 5 6 6 7 7 9 9 9 10 10 9 9 9 9 7 7 7 8 9
1 6 7 11 13 12 13 9 7 6 3 4 2 1 3 5 5 3 2 2 2 3 2 3 4 5 7 7 7 7 8 8 9 9 9 8 8 9 10 8 8 8 8 9
8 11 8 7 4 7 4 2 4 8 7 6 6 6 4 3 3 2 4 3 3 2 3 3 3 5 6 6 6 6 4 5 7 9 7 7 7 8 8 9 9 13 17 19
Wind_Direction
188 201 206 186 189 248 195 202 259 233 40 281 220 261 259 173 280 250 245 244 249 257 262 270 276 262 254 258 262 258 249 243 243 236 235 241 241 240 243 247 255 259 262 259
164 208 223 253 203 168 162 199 236 231 332 300 240 258 266 256 248 256 265 264 263 267 268 267 270 270 286 287 279 267 263 255 244 237 235 252 269 257 262 219 244 249 262 263
186 132 133 151 183 206 220 225 208 222 168 238 300 265 258 242 252 253 252 257 263 273 286 292 301 293 296 288 293 282 266 263 248 229 240 244 259 261 257 243 246 250 288 283
228 129 182 181 207 197 220 212 262 194 230 244 280 272 248 224 201 213 242 242 250 266 295 302 317 311 319 332 338 314 293 267 258 236 239 243 250 265 287 339 333 270 246 265
162 162 165 199 208 183 216 121 210 223 243 290 228 261 249 255 241 254 247 264 222 216 305 315 321 332 330 343 340 321 336 319 42 254 283 288 267 283 280 271 265 264 263 254
105 2 164 154 133 179 126 121 111 138 219 250 247 244 252 224 212 245 102 133 151 61 354 4 11 347 349 359 360 359 346 272 224 242 228 261 275 280 284 278 272 267 256 263
132 129 115 172 121 161 177 170 135 200 202 244 349 226 245 304 249 204 177 265 130 47 49 49 51 38 26 15 9 15 5 321 289 285 284 284 274 275 272 273 274 281 281 273
172 180 175 177 190 176 190 184 181 209 200 217 110 229 243 239 264 125 203 256 264 181 116 96 72 50 40 27 10 358 359 325 296 283 279 276 284 287 295 299 299 300 297 300
170 113 133 168 77 163 182 218 49 349 15 311 202 223 255 232 246 200 206 179 153 147 151 115 81 49 34 28 13 341 325 298 281 282 287 286 284 284 285 291 294 292 296 295
181 121 206 134 144 133 215 164 173 217 217 243 253 264 261 203 228 186 176 171 159 156 158 114 69 39 24 21 359 333 306 297 296 294 283 289 296 290 287 292 284 280 280 278
127 146 132 152 210 181 167 178 223 181 220 256 272 263 93 280 213 212 159 152 160 172 163 150 56 17 6 6 328 320 315 301 301 287 285 276 268 278 274 269 269 270 275 276
51 82 134 142 64 352 219 210 199 207 175 252 324 257 3 16 213 180 136 86 131 192 265 266 295 303 319 346 344 330 334 315 320 313 296 292 294 294 284 277 279 279 278 279
150 152 128 140 230 198 210 208 228 217 88 201 206 173 16 121 122 113 353 236 263 258 260 297 318 340 359 337 352 333 331 348 352 325 308 299 299 291 278 281 286 285 280 272
184 155 16 206 70 212 202 210 214 230 216 239 231 247 156 114 152 276 207 229 266 292 309 306 308 314 337 15 28 7 3 0 351 345 338 322 315 312 313 313 305 293 284 279
69 103 79 56 39 28 337 260 225 229 237 240 260 259 265 281 291 293 300 300 308 294 287 298 322 338 344 24 28 15 5 4 353 337 337 331 330 323 321 315 308 301 293 285
337 119 100 353 176 170 272 256 245 253 268 264 272 269 272 269 266 268 270 269 272 283 288 332 336 15 27 34 10 349 350 344 331 332 322 326 320 316 307 303 300 295 289 285
152 129 149 123 15 303 273 238 237 244 239 240 254 264 262 257 255 260 261 258 274 290 330 355 42 54 34 11 352 345 335 330 332 327 332 341 331 319 313 307 302 298 294 291
162 113 26 94 153 233 10 327 249 242 246 246 250 260 267 270 286 329 352 268 277 119 89 72 41 11 12 359 351 335 332 328 335 333 345 344 335 327 324 318 309 303 300 296
74 129 120 189 226 312 300 232 206 197 253 249 257 259 260 274 83 180 71 60 77 75 64 51 24 3 351 357 345 333 323 333 327 348 341 334 328 324 322 316 314 310 304 298
197 289 243 160 230 237 42 36 284 243 268 267 266 265 271 142 241 103 101 76 73 70 52 27 4 351 348 350 343 330 327 329 339 342 330 325 323 321 317 315 314 310 299 291
150 191 214 214 258 275 272 263 282 194 280 351 23 28 49 116 44 106 97 88 69 53 31 5 348 338 346 349 341 323 327 333 339 331 327 325 326 320 316 315 314 308 304 299
177 172 193 204 233 263 192 86 223 337 66 67 69 59 82 102 99 97 81 75 22 349 350 349 319 321 336 352 345 328 327 344 337 333 325 322 320 320 317 314 313 312 305 302
217 206 189 200 211 201 183 301 331 295 278 144 126 127 113 130 124 192 213 238 246 283 301 315 310 322 341 2 348 326 342 341 335 329 323 321 321 319 326 318 317 316 317 313
231 230 239 201 231 251 249 241 246 215 233 178 130 108 104 288 309 271 229 234 249 244 281 319 340 334 328 348 340 338 335 338 329 317 318 317 319 324 317 318 311 317 315 313
299 161 223 251 266 285 270 242 249 205 151 149 147 184 223 232 241 233 258 254 283 291 314 353 341 330 321 331 325 332 337 338 322 314 311 320 328 325 320 318 314 308 297 297
198 219 219 247 236 244 280 346 162 169 189 191 192 195 209 243 296 341 290 323 317 318 353 347 327 299 299 310 310 320 335 325 314 319 329 330 324 319 317 317 312 304 306 313